ダニエル彗星

33P/Daniel (2008)

English version
Home page
Updated on May 9, 2009

---------------------------------------------------------------------

・ プロフィール

・ 写真集

・ 軌道要素

Epoch 2008 Aug. 2.0 TT = JDT 2454680.5
T 2008 July 20.34843 TT                                 MPC
q   2.1697263            (2000.0)            P               Q
n   0.12172673     Peri.   18.97568     +0.10009234     -0.93165230
a   4.0322312      Node    66.57206     +0.85654460     -0.09794513
e   0.4619043      Incl.   22.37553     +0.50627351     +0.34990105
P   8.10
From 152 observations 1992-2009, mean residual 0".79.  Nongravitational
   parameters A1 = +0.53 +/- 0.06, A2 = +0.0470 +/- 0.0013.

・ 光度変化

        m1 =  10.5 + 5 logΔ +  15.0 log r  [   ,194]  (              〜2009年 1月30日)
        m1 = -61.5 + 5 logΔ + 180   log r  [194,215]  (2009年 1月30日〜2009年 2月20日)
        m1 = -65.5 + 5 logΔ + 180   log r  [215,257]  (2009年 2月20日〜2009年 4月 3日)
        m1 =  10.5 + 5 logΔ +  15.0 log r  [257,   ]  (2009年 4月 3日〜              )

        ※ 灰色の曲線は、m1 = 10.5 + 5 logΔ + 15.0 log r の光度曲線です。

---------------------------------------------------------------------

軌道要素はM.P.E.C. 2009-D52に掲載されたものです。
光度グラフはComet for Windowsで作成したものです。

---------------------------------------------------------------------

Copyright(C) Seiichi Yoshida (comet@aerith.net). All rights reserved.